Location: Ambrosina
(19.9365°S, 43.9833°W)
Time: 01:53:16
(UTC+00:00)

DMSP B5D1-3 - Pass Details

Date: 11 May 2021
Orbit: 766 x 781 km, 98.5° (Epoch: 20 June)

Event Time Altitude Azimuth Distance (km) Brightness Sun altitude
Rises 21:02:18 0° 16° (NNE) 3,219 7.7 -8.3°
Reaches altitude 10° 21:04:35 10° 17° (NNE) 2,300 7.0 -8.8°
Maximum altitude 21:09:40 79° 103° (ESE) 791 4.5 -10.0°
Drops below altitude 10° 21:14:48 10° 189° (S) 2,333 6.9 -11.2°
Sets 21:17:08 0° 190° (S) 3,268 7.7 -11.7°
